Regional Weather Roundup
Issued by NWS Mt. Holly, NJ

Home | Current Version | Previous Version | Text Only | Print | Product List | Glossary On
Versions: 1 2 3 4 5 6 7 8 9 10 11 12 13 14 15 16 17 18 19 20 21 22 23 24 25 26 27 28 29 30 31 32 33 34 35 36 37 38 39 40 41 42 43 44 45 46 47 48 49 50
000
ASUS41 KPHI 271812
RWRPHI

REGIONAL WEATHER ROUNDUP
NATIONAL WEATHER SERVICE MOUNT HOLLY NJ
200 PM EDT MON MAR 27 2017

NOTE:  "FAIR" INDICATES FEW OR NO CLOUDS BELOW 12,000 FEET WITH NO
SIGNIFICANT WEATHER AND/OR OBSTRUCTIONS TO VISIBILITY.

 * = STATION DOES NOT REPORT PRECIPITATION (E.G. RAIN, SNOW, ETC.)
        OR FOG.

NJZ015>026-271900-
SOUTHERN NEW JERSEY

CITY           SKY/WX    TMP DP  RH WIND       PRES   REMARKS
POMONA         CLOUDY    65  57  75 W10       30.03F
6HR MIN TEMP:  46; 6HR MAX TEMP:  66; 6HR PCP:  0.14;

WILDWOOD*      PTSUNNY   70  57  63 W13       30.03F
MILLVILLE      PTSUNNY   66  58  75 W14G23    30.03F
WRIGHTSTOWN    CLOUDY    58  54  88 W7        30.00F
MOUNT HOLLY    CLOUDY    57  52  83 SW10      30.03F
TRENTON        CLOUDY    52  48  86 W5        30.04F
6HR MIN TEMP:  41; 6HR MAX TEMP:  52; 6HR PCP:  0.16;


$$
NJZ001>014-271900-
NORTHERN NEW JERSEY

CITY           SKY/WX    TMP DP  RH WIND       PRES   REMARKS
SUSSEX         CLOUDY    43  42  97 E3        30.03F
ANDOVER*         N/A     46  44  93 VRB3      30.03S
MORRISTOWN     CLOUDY    48  45  87 CALM      30.04F
NEWARK         CLOUDY    50  46  86 CALM      30.04S
TETERBORO      CLOUDY    49  45  86 CALM      30.03F
CALDWELL       CLOUDY    47  44  90 VRB3      30.05F
SOMERVILLE     CLOUDY    49  46  90 VRB6      30.03F
ALLAIRE*       CLOUDY    57  53  86 SW8       30.03F
TOMS RIVER*    CLOUDY    61  57  87 SW10      30.03F

$$
PAZ043-044-047-054-055-060>062-066>071-271900-
EASTERN PENNSYLVANIA

CITY           SKY/WX    TMP DP  RH WIND       PRES   REMARKS
PHILADELPHIA   CLOUDY    54  50  86 SW9       30.04F
6HR MIN TEMP:  44; 6HR MAX TEMP:  54; 6HR PCP:  0.09;

NORTH PHILA    CLOUDY    54  50  86 CALM      30.05F FOG
BLUE BELL*     CLOUDY    52  50  93 CALM      30.03F
DOYLESTOWN     CLOUDY    51  48  89 W6        30.03F
QUAKERTOWN*    CLOUDY    48  46  93 W5        30.05F
PERKASIE*      CLOUDY    50  48  93 W7        30.04F
POTTSTOWN      CLOUDY    50  46  86 NW5       30.04F FOG
LANCASTER      CLOUDY    52  49  89 N3        30.02F FOG
COATESVILLE    CLOUDY    54  52  94 CALM      30.04F
READING        CLOUDY    48  47  96 CALM      30.03F
6HR MIN TEMP:  41; 6HR MAX TEMP:  49; 6HR PCP: TRACE;

ALLENTOWN      CLOUDY    47  43  86 CALM      30.04F FOG
6HR MIN TEMP:  40; 6HR MAX TEMP:  47; 6HR PCP:  0.02;

MOUNT POCONO   CLOUDY    49  47  93 W13G22    29.99F
6HR MIN TEMP:  36; 6HR MAX TEMP:  49; 6HR PCP:  0.01;

HAZLETON       CLOUDY    54  52  94 W3        30.03F
LEHIGHTON      CLOUDY    46  45  93 CALM      30.04F
WILKES BARRE   CLOUDY    50  46  86 SW9       30.00F

$$
DEZALL-MDZ008-012-015-019-020-271900-
DELAWARE AND EASTERN MARYLAND

CITY           SKY/WX    TMP DP  RH WIND       PRES   REMARKS
WILMINGTON     CLOUDY    56  52  86 SW9       30.04F
6HR MIN TEMP:  44; 6HR MAX TEMP:  56; 6HR PCP:  0.10;

DOVER          PTSUNNY   68  66  94 W12       30.01F
GEORGETOWN     CLOUDY    73  56  54 W15G22    30.03F
6HR MIN TEMP:  52; 6HR MAX TEMP:  73;

EASTON         PTSUNNY   70  55  60 SW12      30.06F
ABERDEEN       CLOUDY    56  51  84 SW7       30.04F
PATUXENT       PTSUNNY   73  59  61 S18G24    30.02F
OCEAN CITY     CLOUDY    69  54  58 SW15G22   30.05F
WALLOPS ISLAND PTSUNNY   64  54  69 S14       30.07F
CAMBRIDGE      SUNNY     70  57  64 SW9G17    30.02F
SALISBURY      CLOUDY    72  58  61 SW15G22   30.04F

$$
PAZ001-021-NYZ056-072-MDZ011-DCZ001-271900-
OTHER NEARBY LOCATIONS

CITY           SKY/WX    TMP DP  RH WIND       PRES   REMARKS
HARRISBURG     CLOUDY    48  47  96 W3        30.02F FOG
STATE COLLEGE  MOSUNNY   59  50  72 SW7       29.98F
WILLIAMSPORT   CLOUDY    50  44  80 E3        30.01F
BINGHAMTON     CLOUDY    44  42  93 S6        29.95F
NEW YORK CITY  CLOUDY    51  45  79 CALM      30.05F
BALTIMORE      PTSUNNY   62  55  77 VRB3      30.02F
WASHINGTON DC  MOSUNNY   64  56  75 S8        30.02F

$$



USA.gov is the U.S. government's official web portal to all federal, state and local government web resources and services.